Hourly Data Report for May 27, 2012

All times are specified in Local Standard Time (LST). Add 1 hour to adjust for Daylight Saving Time where and when it is observed.

YARMOUTH A
NOVA SCOTIA

43°49'37.000" N
66°05'17.000" W
42.90 m
8206495
71603
YQI

Download Data

Hourly Data (May 2012)
Hourly Data Report for May 27, 2012
Temp Definition
°C
Dew Point Temp Definition
°C
Rel Hum Definition
%
Wind Dir Definition
10's deg

Wind Spd Definition
km/h
Visibility Definition
km
Stn Press Definition
kPa
Hmdx Definition


Wind Chill Definition


Weather Definition


TIME
00:00 Legend Double Dagger 11.4 11.6 101 30 11 10.0 101.32     LegendNANA
01:00 Legend Double Dagger 10.9 10.8 99 32 16 10.0 101.28     LegendNANA
02:00 Legend Double Dagger 10.7 9.9 95 36 13 10.0 101.26     Clear
03:00 Legend Double Dagger 10.8 9.4 91 35 13 10.0 101.29     LegendNANA
04:00 Legend Double Dagger 10.6 8.5 87 8 10 10.0 101.34     LegendNANA
05:00 Legend Double Dagger 10.5 8.8 89 35 9 10.0 101.46     Mostly Cloudy
06:00 Legend Double Dagger 11.9 10.5 91 2 7 10.0 101.51     LegendNANA
07:00 Legend Double Dagger 15.0 12.0 82 4 9 10.0 101.57     LegendNANA
08:00 Legend Double Dagger 16.3 9.6 64 9 13 10.0 101.58     Mostly Cloudy
09:00 Legend Double Dagger 18.3 7.5 49 9 13 10.0 101.61     LegendNANA
10:00 Legend Double Dagger 19.2 6.5 43   0 10.0 101.56     LegendNANA
11:00 Legend Double Dagger 18.9 9.2 53 28 15 10.0 101.58     Mainly Clear
12:00 Legend Double Dagger 18.5 8.3 51 28 16 10.0 101.55     LegendNANA
13:00 Legend Double Dagger 18.8 6.4 44 29 18 10.0 101.52     LegendNANA
14:00 Legend Double Dagger 18.4 5.7 43 28 15 10.0 101.50     Mainly Clear
15:00 Legend Double Dagger 17.6 5.3 44 30 19 10.0 101.51     LegendNANA
16:00 Legend Double Dagger 17.3 5.7 46 30 18 10.0 101.50     LegendNANA
17:00 Legend Double Dagger 17.1 5.8 47 28 14 10.0 101.50     Cloudy
18:00 Legend Double Dagger 15.4 6.0 53 28 12 10.0 101.46     LegendNANA
19:00 Legend Double Dagger 14.2 7.6 64   0 10.0 101.45     LegendNANA
20:00 Legend Double Dagger 12.7 7.0 68 23 6 10.0 101.43     Cloudy
21:00 Legend Double Dagger 12.1 6.8 70 22 5 10.0 101.43     LegendNANA
22:00 Legend Double Dagger 11.9 6.4 69   0 10.0 101.36     LegendNANA
23:00 Legend Double Dagger 11.9 8.8 81 20 10 10.0 101.33     Cloudy

Notes on Data Quality.

Legend

  • E = Estimated
  • M = Missing
  • NA = Not Available
  • ‡ = Partner data that is not subject to review by the National Climate Archives
Date modified: